Measurements were made at the meteorological tower in Juelich (50.90 N / 6.40 E) at an altitude of 100 m,
"Instrument: Fast Greenhouse Gas Analyzer (FGGA), Los Gatos Inc.",
Responsible PI: Dr. Marc von Hobe; Forschungszentrum Juelich GmbH; IEK-7; email: m.von.hobe@fz-juelich.de,
NaN or negative numbers are fill values (i.e. no valid measurements were made at that time),
Uncertainties are given as the 1-sigma standard deviation over each 10 minute intervals. In each interval ~600 individual measurements are carried out so that the standard error of the mean is approximately sigma/sqrt(600).,
time_utc,CO2_ppm,stdev_CO2_ppm,CH4_ppm,stdev_CH4_ppm,H2O_ppm,stdev_H2O_ppm
"2015-01-01 00:05:00 000",416.036,0.692543,2.10868,0.00528354,6537.50,100.236
"2015-01-01 00:15:00 000",415.268,0.793934,2.09471,0.00860400,6591.19,99.1119
"2015-01-01 00:25:00 000",414.530,0.796447,2.08586,0.00405057,6630.97,102.041
"2015-01-01 00:35:00 000",414.592,0.714531,2.08377,0.00375455,6652.80,107.034
"2015-01-01 00:45:00 000",414.441,0.890345,2.07925,0.00509613,6591.02,98.6664
"2015-01-01 00:55:00 000",412.244,0.819331,2.06623,0.00473599,6661.22,106.617
"2015-01-01 01:05:00 000",410.144,0.907726,2.05620,0.00776457,6784.75,108.145
"2015-01-01 01:15:00 000",409.113,1.27334,2.03865,0.00996490,6937.44,114.453
"2015-01-01 01:25:00 000",411.539,0.929355,2.04935,0.00492012,6963.36,111.118
"2015-01-01 01:35:00 000",412.673,1.00509,2.04675,0.00563595,6778.32,115.382
"2015-01-01 01:45:00 000",413.730,1.17687,2.04478,0.00775435,6697.51,104.592
"2015-01-01 01:55:00 000",415.504,0.783735,2.04309,0.00615027,6648.08,101.366
"2015-01-01 02:05:00 000",412.879,1.31127,2.04229,0.00688626,6599.77,103.467
"2015-01-01 02:15:00 000",410.342,0.940683,2.03032,0.00630672,6584.44,101.736
"2015-01-01 02:25:00 000",411.190,0.888625,2.03729,0.00680050,6581.59,105.110
"2015-01-01 02:35:00 000",410.825,0.749551,2.02727,0.00722416,6532.05,95.5918
"2015-01-01 02:45:00 000",411.892,1.09350,2.03702,0.00780303,6531.44,109.172
"2015-01-01 02:55:00 000",411.570,0.878634,2.02269,0.00945725,6442.97,101.568
"2015-01-01 03:05:00 000",411.152,0.773133,2.01083,0.00458520,6560.75,109.517
"2015-01-01 03:15:00 000",410.639,1.36180,2.00825,0.00945726,6672.82,106.280
"2015-01-01 03:25:00 000",407.592,1.16280,1.99450,0.0119869,6801.35,104.058
"2015-01-01 03:35:00 000",409.442,1.21590,1.99330,0.00496584,6802.22,106.016
"2015-01-01 03:45:00 000",415.147,1.91385,1.99823,0.00481525,6712.19,101.131
"2015-01-01 03:55:00 000",410.759,1.30610,1.98994,0.00385422,6659.06,106.570
"2015-01-01 04:05:00 000",410.379,2.30730,1.98139,0.00656799,6655.84,114.662
"2015-01-01 04:15:00 000",408.347,0.906073,1.96945,0.00439831,6714.27,98.8305
"2015-01-01 04:25:00 000",410.205,1.53305,1.96639,0.00473615,6756.09,101.773
"2015-01-01 04:35:00 000",412.738,2.00907,1.96072,0.00403359,6840.85,109.560
"2015-01-01 04:45:00 000",417.386,3.36515,1.95884,0.00368112,6960.14,107.055
"2015-01-01 04:55:00 000",406.763,0.998270,1.96358,0.00434889,6933.94,102.053
"2015-01-01 05:05:00 000",406.288,0.683097,1.95905,0.00371553,6871.98,99.3175
"2015-01-01 05:15:00 000",406.590,0.687195,1.96152,0.00405158,6885.30,98.8623
"2015-01-01 05:25:00 000",407.408,0.797566,1.98683,0.0186859,6851.28,104.770
"2015-01-01 05:35:00 000",407.122,0.671856,2.03471,0.0123715,6774.78,105.984
"2015-01-01 05:45:00 000",407.801,0.680395,2.04339,0.00840749,6730.58,108.974
"2015-01-01 05:55:00 000",408.488,0.700950,2.04418,0.00897106,6655.18,106.068
"2015-01-01 06:05:00 000",409.265,0.661374,2.03048,0.00758606,6578.13,102.606
"2015-01-01 06:15:00 000",410.481,0.821743,2.02847,0.00385033,6517.78,104.524
"2015-01-01 06:25:00 000",411.776,0.656293,2.03238,0.00453743,6446.57,107.403
"2015-01-01 06:35:00 000",412.144,0.673245,2.06892,0.0399836,6394.05,96.7816
"2015-01-01 06:45:00 000",410.975,0.999845,2.08694,0.0237702,6352.96,102.173
"2015-01-01 06:55:00 000",410.075,0.832614,2.07737,0.0109616,6349.19,103.197
"2015-01-01 07:05:00 000",412.518,3.05671,2.05183,0.00838651,6367.13,105.261
"2015-01-01 07:15:00 000",418.583,1.32471,2.01651,0.0122272,6354.36,107.419
"2015-01-01 07:25:00 000",420.330,1.31182,1.99945,0.00420715,6423.46,108.616
"2015-01-01 07:35:00 000",417.023,2.84877,1.98375,0.00670253,6413.89,105.782
"2015-01-01 07:45:00 000",408.974,1.38979,1.96282,0.00666963,6477.83,111.517
"2015-01-01 07:55:00 000",407.535,0.794453,1.95323,0.00395872,6527.19,106.361
"2015-01-01 08:05:00 000",405.804,0.927815,1.94285,0.00501168,6672.41,115.560
"2015-01-01 08:15:00 000",404.777,0.705695,1.93502,0.00356889,6856.73,112.725
"2015-01-01 08:25:00 000",406.127,1.39749,1.94822,0.0120958,6989.91,105.840
"2015-01-01 08:35:00 000",405.490,0.872503,1.94754,0.00617609,7010.44,104.161
"2015-01-01 08:45:00 000",405.557,0.878399,1.94342,0.00533368,7098.75,91.5209
"2015-01-01 08:55:00 000",406.181,1.03405,1.94448,0.00495506,7102.83,96.0211
"2015-01-01 09:05:00 000",408.558,1.17571,1.95108,0.00787095,6998.53,95.1563
"2015-01-01 09:15:00 000",408.911,0.881903,1.95843,0.00356186,6910.43,94.2439
"2015-01-01 09:25:00 000",408.934,0.750293,1.96372,0.00492145,6887.57,103.711
"2015-01-01 09:35:00 000",409.841,0.960779,1.97657,0.00602638,6842.72,115.072
"2015-01-01 09:45:00 000",411.973,0.956515,1.98495,0.00412964,6788.64,118.670
"2015-01-01 09:55:00 000",411.760,0.992649,1.98578,0.00410582,6814.77,123.165
"2015-01-01 10:05:00 000",411.125,0.808096,1.98385,0.00405102,6808.61,114.978
"2015-01-01 10:15:00 000",410.938,0.785144,1.98569,0.00509433,6789.63,107.849
"2015-01-01 10:25:00 000",410.067,0.840914,1.98119,0.00526209,6816.77,98.4988
"2015-01-01 10:35:00 000",409.113,0.844929,1.97589,0.00473997,6851.79,86.3886
"2015-01-01 10:45:00 000",408.800,0.890224,1.97686,0.00541108,6897.93,84.4459
"2015-01-01 10:55:00 000",408.364,1.14585,1.97463,0.00621098,6951.56,85.7472
"2015-01-01 11:05:00 000",408.708,1.16252,1.98064,0.00475002,7083.54,103.237
"2015-01-01 11:15:00 000",409.212,1.14809,1.97747,0.00399656,7262.11,87.1120
"2015-01-01 11:25:00 000",408.757,1.52136,1.96798,0.00473216,7188.89,86.7784
"2015-01-01 11:35:00 000",419.921,5.19098,1.96109,0.00377725,7305.97,88.8035
"2015-01-01 11:45:00 000",418.585,4.67919,1.95704,0.00351443,7365.86,95.0751
"2015-01-01 11:55:00 000",411.475,1.35132,1.95667,0.00344389,7550.06,124.448
"2015-01-01 12:05:00 000",412.154,1.30506,1.95247,0.00383254,7688.50,112.303
"2015-01-01 12:15:00 000",408.078,1.78360,1.95256,0.00361147,7766.24,108.603
"2015-01-01 12:25:00 000",405.727,0.752841,1.95000,0.00327426,7679.89,111.317
"2015-01-01 12:35:00 000",405.233,0.657110,1.95016,0.00329038,7633.69,90.0780
"2015-01-01 12:45:00 000",404.793,0.687593,1.95597,0.00409067,7611.61,89.6911
"2015-01-01 12:55:00 000",404.834,0.657166,1.96223,0.00383188,7712.29,92.7325
"2015-01-01 13:05:00 000",405.114,0.684016,1.97110,0.00532175,7672.65,77.0686
"2015-01-01 13:15:00 000",404.668,0.710345,1.95546,0.0110370,7706.30,80.4202
"2015-01-01 13:25:00 000",404.124,0.694485,1.94382,0.00358727,7761.64,87.3952
"2015-01-01 13:35:00 000",403.752,0.682948,1.94690,0.00377987,7720.58,84.3760
"2015-01-01 13:45:00 000",403.617,0.660769,1.95076,0.00759253,7786.51,111.344
"2015-01-01 13:55:00 000",403.962,0.682569,1.96024,0.00386518,7883.02,86.1287
"2015-01-01 14:05:00 000",405.961,1.25845,1.96001,0.00402236,7792.24,81.7334
"2015-01-01 14:15:00 000",404.716,1.20310,1.95414,0.00330379,7725.94,81.8567
"2015-01-01 14:25:00 000",406.469,1.55550,1.95416,0.00327172,7743.01,79.8584
"2015-01-01 14:35:00 000",408.459,1.67438,1.95543,0.00342585,7699.56,81.1891
"2015-01-01 14:45:00 000",406.466,1.66247,1.95559,0.00342513,7727.98,89.8893
"2015-01-01 14:55:00 000",406.119,1.44920,1.95610,0.00359661,7654.98,76.8954
"2015-01-01 15:05:00 000",410.648,2.89152,1.95771,0.00359549,7656.42,93.7057
"2015-01-01 15:15:00 000",406.217,1.20997,1.96291,0.00367906,7667.06,98.7581
"2015-01-01 15:25:00 000",404.290,0.681926,1.96263,0.00387850,7639.35,107.592
"2015-01-01 15:35:00 000",404.319,0.691764,1.96579,0.00571451,7569.77,104.205
"2015-01-01 15:45:00 000",403.705,0.645641,1.97275,0.00422131,7552.19,106.261
"2015-01-01 15:55:00 000",403.529,0.905874,1.97364,0.00347465,7572.98,116.363
"2015-01-01 16:05:00 000",404.982,0.923525,1.96656,0.00520713,7504.92,116.408
"2015-01-01 16:15:00 000",406.011,1.93136,1.96035,0.00390861,7450.93,113.973
"2015-01-01 16:25:00 000",416.798,2.61648,1.96020,0.00347278,7418.68,117.654
"2015-01-01 16:35:00 000",410.216,4.50666,1.95838,0.00378273,7454.67,115.983
"2015-01-01 16:45:00 000",404.644,1.20084,1.95153,0.00430962,7523.23,118.748
"2015-01-01 16:55:00 000",403.931,2.49960,1.94524,0.00329877,7560.46,114.323
"2015-01-01 17:05:00 000",404.918,1.73722,1.94760,0.00461662,7576.84,105.782
"2015-01-01 17:15:00 000",406.452,1.14277,1.96237,0.00510713,7595.61,105.935
"2015-01-01 17:25:00 000",406.965,0.979919,1.97634,0.00734801,7543.96,105.847
"2015-01-01 17:35:00 000",407.372,0.935262,1.97425,0.00452436,7487.81,107.366
"2015-01-01 17:45:00 000",408.490,1.39684,1.97508,0.00507557,7436.25,113.590
"2015-01-01 17:55:00 000",408.474,0.963757,1.97619,0.00387989,7328.04,116.264
"2015-01-01 18:05:00 000",411.931,2.47305,1.96933,0.00494596,7342.83,113.812
"2015-01-01 18:15:00 000",413.223,2.71618,1.96536,0.00436346,7445.94,135.709
"2015-01-01 18:25:00 000",416.402,2.19719,1.96427,0.00556400,7638.71,117.976
"2015-01-01 18:35:00 000",414.065,2.06545,1.96257,0.00406663,7585.16,137.265
"2015-01-01 18:45:00 000",410.336,0.951095,1.96298,0.00396353,7459.88,128.907
"2015-01-01 18:55:00 000",409.077,0.748799,1.96332,0.00358364,7503.60,106.766
"2015-01-01 19:05:00 000",408.171,0.756556,1.96483,0.00482608,7497.32,101.397
"2015-01-01 19:15:00 000",407.338,0.795521,1.96384,0.00386987,7411.97,143.141
"2015-01-01 19:25:00 000",405.999,0.757115,1.95890,0.00500297,7252.37,91.0471
"2015-01-01 19:35:00 000",405.517,0.663803,1.95442,0.00344151,7479.66,93.8432
"2015-01-01 19:45:00 000",405.869,0.715341,1.96119,0.00371469,7539.98,84.8997
"2015-01-01 19:55:00 000",406.580,0.706582,1.96194,0.00367405,7547.37,83.7484
"2015-01-01 20:05:00 000",410.942,3.12286,1.96491,0.00388433,7500.16,88.4401
"2015-01-01 20:15:00 000",422.961,3.54050,1.96734,0.00361503,7577.05,92.8737
"2015-01-01 20:25:00 000",433.449,2.71477,1.96554,0.00424361,7609.57,106.161
"2015-01-01 20:35:00 000",421.577,7.13970,1.96880,0.00376473,7640.45,112.420
"2015-01-01 20:45:00 000",412.688,3.27616,1.96548,0.00488708,7742.72,122.622
"2015-01-01 20:55:00 000",422.580,2.13939,1.96483,0.00412998,7785.97,121.855
"2015-01-01 21:05:00 000",426.025,2.02591,1.96159,0.00431830,7759.63,116.668
"2015-01-01 21:15:00 000",424.960,3.39320,1.95760,0.00385703,7836.92,117.202
"2015-01-01 21:25:00 000",423.137,2.53410,1.95601,0.00367416,7835.71,111.192
"2015-01-01 21:35:00 000",414.412,4.44149,1.95300,0.00396111,7843.04,117.922
"2015-01-01 21:45:00 000",407.171,1.37193,1.95056,0.00374699,7821.02,118.203
"2015-01-01 21:55:00 000",406.197,0.670529,1.95014,0.00349961,7798.18,123.479
"2015-01-01 22:05:00 000",405.685,0.714024,1.94817,0.00351269,7773.99,117.278
"2015-01-01 22:15:00 000",407.772,4.43517,1.94805,0.00347718,7818.28,117.176
"2015-01-01 22:25:00 000",423.990,3.08261,1.94686,0.00364480,7944.89,125.115
"2015-01-01 22:35:00 000",421.994,2.30176,1.94515,0.00377937,8072.82,116.977
"2015-01-01 22:45:00 000",418.031,2.01867,1.94495,0.00356931,8096.30,120.413
"2015-01-01 22:55:00 000",414.828,2.41186,1.94430,0.00380806,8135.15,121.691
"2015-01-01 23:05:00 000",409.492,2.75796,1.94184,0.00379689,8232.57,121.172
"2015-01-01 23:15:00 000",405.081,0.908859,1.93993,0.00364773,8310.32,123.959
"2015-01-01 23:25:00 000",404.265,0.649686,1.96305,0.0186192,8263.50,119.448
"2015-01-01 23:35:00 000",404.232,0.640772,1.96698,0.00632272,8201.93,122.955
"2015-01-01 23:45:00 000",404.563,0.666748,1.95897,0.00844723,8139.17,111.138
"2015-01-01 23:55:00 000",404.721,0.624488,1.95081,0.00384413,8079.63,110.114
"2015-01-02 00:05:00 000",404.575,0.673039,1.95917,0.00543757,8044.25,105.481
"2015-01-02 00:15:00 000",404.227,0.646291,1.96268,0.00413976,8063.22,101.782
"2015-01-02 00:25:00 000",404.169,0.661399,1.96333,0.00440867,8078.66,100.921
"2015-01-02 00:35:00 000",404.220,0.637291,1.96289,0.00382764,8138.07,101.582
"2015-01-02 00:45:00 000",403.946,0.685527,1.95223,0.00682434,8179.93,101.877
"2015-01-02 00:55:00 000",404.079,0.656587,1.94195,0.00357106,8177.81,108.505
"2015-01-02 01:05:00 000",404.419,0.613856,1.93781,0.00355533,8196.21,102.025
"2015-01-02 01:15:00 000",404.690,0.663746,1.93752,0.00355994,8185.14,105.958
"2015-01-02 01:25:00 000",404.603,0.643917,1.93944,0.00373287,8191.36,107.413
"2015-01-02 01:35:00 000",404.669,0.668059,1.94053,0.00351959,8155.33,117.852
"2015-01-02 01:45:00 000",404.869,0.654874,1.94031,0.00349648,8177.28,114.069
"2015-01-02 01:55:00 000",404.863,0.640898,1.94081,0.00361559,8163.33,109.982
"2015-01-02 02:05:00 000",404.850,0.652937,1.93996,0.00350228,8237.22,114.889
"2015-01-02 02:15:00 000",404.627,0.671408,1.93982,0.00347337,8325.16,112.503
"2015-01-02 02:25:00 000",404.583,0.678575,1.93849,0.00358581,8472.95,124.665
"2015-01-02 02:35:00 000",404.427,0.655838,1.93732,0.00363625,8603.84,120.871
"2015-01-02 02:45:00 000",404.374,0.646084,1.93778,0.00371054,8671.47,110.868
"2015-01-02 02:55:00 000",404.298,0.655592,1.93438,0.00376133,8703.12,103.102
"2015-01-02 03:05:00 000",403.842,0.646913,1.93491,0.00369888,8711.68,100.784
"2015-01-02 03:15:00 000",403.868,0.655398,1.93662,0.00322731,8694.51,92.8646
"2015-01-02 03:25:00 000",403.881,0.676235,1.93681,0.00340853,8621.79,116.759
"2015-01-02 03:35:00 000",403.953,0.679265,1.94146,0.00357867,8327.58,108.111
"2015-01-02 03:45:00 000",404.340,0.700398,1.95337,0.00796205,8234.78,103.408
"2015-01-02 03:55:00 000",404.747,0.676382,1.96673,0.00425541,8104.13,106.585
"2015-01-02 04:05:00 000",404.812,0.724148,1.96238,0.00551427,7947.35,119.652
"2015-01-02 04:15:00 000",405.268,0.685152,1.95899,0.00591204,7800.04,116.103
"2015-01-02 04:25:00 000",405.203,0.642237,1.94873,0.00375542,7684.10,113.254
"2015-01-02 04:35:00 000",405.538,0.699349,1.95107,0.00392406,7585.39,113.218
"2015-01-02 04:45:00 000",405.678,0.680229,1.95197,0.00343195,7562.50,123.678
"2015-01-02 04:55:00 000",405.749,0.686250,1.95437,0.00370862,7735.50,123.911
"2015-01-02 05:05:00 000",405.837,0.675138,1.95570,0.00352168,7809.43,112.294
"2015-01-02 05:15:00 000",406.216,0.672138,1.96208,0.00510581,7868.17,116.016
"2015-01-02 05:25:00 000",406.680,0.705595,1.97387,0.00421818,7838.28,110.172
"2015-01-02 05:35:00 000",406.919,0.711133,1.97465,0.00401741,7825.96,114.035
"2015-01-02 05:45:00 000",406.948,0.703090,1.97010,0.00379155,7851.65,115.690
"2015-01-02 05:55:00 000",407.002,0.671711,1.97061,0.00371488,7885.39,112.246
"2015-01-02 06:05:00 000",407.305,0.681315,1.96589,0.00404635,7856.13,104.253
"2015-01-02 06:15:00 000",407.634,0.666213,1.96460,0.00355952,7854.21,108.916
"2015-01-02 06:25:00 000",407.906,0.652066,1.96493,0.00351783,7905.19,106.467
"2015-01-02 06:35:00 000",408.117,0.656979,1.96609,0.00346909,7947.40,106.288
"2015-01-02 06:45:00 000",408.227,0.635249,1.96720,0.00344593,7955.00,111.605
"2015-01-02 06:55:00 000",408.228,0.692777,1.96765,0.00349581,7958.49,110.784
"2015-01-02 07:05:00 000",408.520,0.683640,1.96697,0.00363372,7976.48,114.820
"2015-01-02 07:15:00 000",408.489,0.640336,1.96775,0.00329639,8016.27,113.424
"2015-01-02 07:25:00 000",408.883,0.647743,1.97003,0.00375887,7995.28,115.463
"2015-01-02 07:35:00 000",409.251,0.668352,1.97201,0.00342322,7930.40,111.586
"2015-01-02 07:45:00 000",409.359,0.677269,1.97337,0.00341936,7915.70,121.883
"2015-01-02 07:55:00 000",409.325,0.686196,1.97327,0.00352124,8011.09,122.954
"2015-01-02 08:05:00 000",409.593,0.638075,1.97433,0.00329177,8110.48,109.869
"2015-01-02 08:15:00 000",409.746,0.628894,1.97503,0.00349275,8156.14,119.863
"2015-01-02 08:25:00 000",409.864,0.653994,1.97526,0.00370264,8294.51,122.296
"2015-01-02 08:35:00 000",409.804,0.664554,1.97685,0.00353949,8387.92,116.420
"2015-01-02 08:45:00 000",409.895,0.691063,1.97939,0.00351397,8422.62,123.268
"2015-01-02 08:55:00 000",409.924,0.651653,1.98008,0.00361306,8452.42,118.842
"2015-01-02 09:05:00 000",410.099,0.656799,1.97860,0.00363892,8541.98,123.222
"2015-01-02 09:15:00 000",409.885,0.632647,1.97957,0.00379529,8620.50,122.375
"2015-01-02 09:25:00 000",409.754,0.658261,1.97945,0.00402258,8688.35,117.979
"2015-01-02 09:35:00 000",409.527,0.732658,1.98088,0.00539867,8778.74,108.853
"2015-01-02 09:45:00 000",409.162,0.697066,1.98007,0.00574522,8802.08,116.014
"2015-01-02 09:55:00 000",409.634,0.675939,1.97749,0.00362262,8776.28,110.597
"2015-01-02 10:05:00 000",409.359,0.739039,1.97752,0.00363170,8800.15,104.253
"2015-01-02 10:15:00 000",409.078,0.643404,1.98027,0.00373690,8858.41,100.342
"2015-01-02 10:25:00 000",409.200,0.645604,1.98252,0.00470795,8916.28,93.1809
"2015-01-02 10:35:00 000",409.398,0.686212,2.02627,0.0216983,8808.02,94.4271
"2015-01-02 10:45:00 000",409.902,0.737319,2.02049,0.0154850,8695.55,81.1265
"2015-01-02 10:55:00 000",410.072,0.842473,1.99120,0.00877606,8754.65,82.4684
"2015-01-02 11:05:00 000",411.383,0.710973,1.99621,0.00660843,8760.01,81.0909
"2015-01-02 11:15:00 000",411.453,0.690535,1.99806,0.00741087,8747.04,80.2398
"2015-01-02 11:25:00 000",411.792,0.674351,2.03196,0.0180308,8796.80,83.7216
"2015-01-02 11:35:00 000",411.850,0.776582,2.04465,0.0180129,8867.47,86.4234
"2015-01-02 11:45:00 000",410.859,0.975388,2.01628,0.0207786,8973.38,77.5656
"2015-01-02 11:55:00 000",409.573,0.714865,2.01191,0.0293938,9101.70,79.2346
"2015-01-02 12:05:00 000",412.416,3.21626,2.06172,0.0404426,9161.41,78.6226
"2015-01-02 12:15:00 000",415.454,2.48807,2.01705,0.0549967,9317.79,91.3390
"2015-01-02 12:25:00 000",416.001,1.83709,1.99137,0.0225299,9478.38,85.7775
"2015-01-02 12:35:00 000",417.049,2.38233,2.00356,0.0267580,9486.43,79.8058
"2015-01-02 12:45:00 000",415.353,2.75020,2.02885,0.0329567,9399.15,78.4254
"2015-01-02 12:55:00 000",411.842,2.73663,1.95828,0.00891888,9345.01,72.7502
"2015-01-02 13:05:00 000",407.880,3.27535,1.95044,0.0141630,9325.31,69.9220
"2015-01-02 13:15:00 000",404.899,1.88830,1.93687,0.00404501,9261.92,77.9286
"2015-01-02 13:25:00 000",402.891,1.68928,1.93348,0.00383833,9202.98,75.9465
"2015-01-02 13:35:00 000",401.757,0.974896,1.93179,0.00292270,9128.62,82.1531
"2015-01-02 13:45:00 000",401.185,0.660580,1.93011,0.00308761,9016.21,81.5626
"2015-01-02 13:55:00 000",401.038,0.677279,1.92978,0.00316459,8987.64,79.7290
"2015-01-02 14:05:00 000",401.721,0.968525,1.93008,0.00460935,9040.00,80.2001
"2015-01-02 14:15:00 000",402.559,2.04553,1.92935,0.00415095,9009.59,79.7571
"2015-01-02 14:25:00 000",405.700,2.93409,1.93134,0.00715758,8963.49,77.7754
"2015-01-02 14:35:00 000",408.314,3.96924,1.93577,0.0154231,8926.03,79.5085
"2015-01-02 14:45:00 000",410.425,3.66518,1.93604,0.0145246,8874.84,80.4153
"2015-01-02 14:55:00 000",412.000,2.23081,1.93345,0.0101571,8924.12,78.2573
"2015-01-02 15:05:00 000",414.012,5.27738,1.94188,0.00882320,8909.39,84.6653
"2015-01-02 15:15:00 000",407.717,1.94973,2.04622,0.0576526,8804.39,87.1200
"2015-01-02 15:25:00 000",408.663,2.66958,2.07194,0.0379274,8743.83,86.9396
"2015-01-02 15:35:00 000",406.840,1.43917,2.08438,0.0543703,8753.04,90.7372
"2015-01-02 15:45:00 000",412.717,4.94371,2.07801,0.0426117,8675.92,97.2083
"2015-01-02 15:55:00 000",416.029,2.02971,1.97994,0.0497040,8615.51,98.6587
"2015-01-02 16:05:00 000",419.086,2.40543,1.96786,0.0196695,8530.22,107.959
"2015-01-02 16:15:00 000",413.448,3.41207,1.95609,0.0236088,8521.52,99.9364
"2015-01-02 16:25:00 000",414.795,4.63632,2.01308,0.0473028,8487.54,104.195
"2015-01-02 16:35:00 000",410.980,3.03092,1.97101,0.0557893,8457.44,108.775
"2015-01-02 16:45:00 000",405.781,0.905501,1.92676,0.00393746,8419.09,119.856
"2015-01-02 16:55:00 000",404.345,0.889567,1.92201,0.00368962,8381.53,115.721
"2015-01-02 17:05:00 000",406.690,3.21462,1.92353,0.00435465,8333.22,119.724
"2015-01-02 17:15:00 000",410.149,3.17664,1.92942,0.00551296,8285.87,118.277
"2015-01-02 17:25:00 000",417.167,3.09290,1.99781,0.0477739,8239.64,121.397
"2015-01-02 17:35:00 000",415.253,2.48488,2.02508,0.0529492,8166.98,117.813
"2015-01-02 17:45:00 000",411.067,4.38120,2.04749,0.0603820,8145.94,106.985
"2015-01-02 17:55:00 000",407.709,0.736079,1.99125,0.0207413,8066.78,116.857
"2015-01-02 18:05:00 000",406.672,1.02060,1.98027,0.0439204,8029.75,108.742
"2015-01-02 18:15:00 000",405.469,0.672500,1.93927,0.00396649,7967.41,114.055
"2015-01-02 18:25:00 000",406.577,0.778505,1.93765,0.00465603,7836.53,99.7066
"2015-01-02 18:35:00 000",406.897,0.730787,1.94969,0.00744098,7821.26,94.0605
"2015-01-02 18:45:00 000",406.969,0.699099,1.94618,0.00747192,7784.06,91.0596
"2015-01-02 18:55:00 000",406.675,0.710754,1.95989,0.0191494,7820.90,88.1135
"2015-01-02 19:05:00 000",407.994,0.724443,2.03828,0.0283321,7763.39,96.0491
"2015-01-02 19:15:00 000",408.515,0.672582,2.06181,0.0232011,7675.12,87.2465
"2015-01-02 19:25:00 000",407.753,0.727201,2.03701,0.0261601,7590.54,88.3720
"2015-01-02 19:35:00 000",407.001,0.728386,2.04389,0.0239367,7574.37,82.7312
"2015-01-02 19:45:00 000",406.325,0.658774,2.03841,0.0251019,7550.52,90.7331
"2015-01-02 19:55:00 000",406.267,0.693641,2.05167,0.0239954,7545.07,85.7335
"2015-01-02 20:05:00 000",407.025,0.660403,2.03821,0.0354983,7539.14,89.1958
"2015-01-02 20:15:00 000",407.482,0.639693,1.98902,0.0109551,7504.39,83.2689
"2015-01-02 20:25:00 000",407.406,0.686019,2.02594,0.0181376,7524.48,88.2899
"2015-01-02 20:35:00 000",407.595,0.675181,2.05220,0.0227030,7536.21,84.3952
"2015-01-02 20:45:00 000",407.710,0.676515,2.04371,0.0209633,7497.51,89.6905
"2015-01-02 20:55:00 000",408.093,0.704255,2.04738,0.0211992,7472.34,83.2008
"2015-01-02 21:05:00 000",408.397,0.667085,2.05167,0.0152784,7472.49,87.9190
"2015-01-02 21:15:00 000",408.554,0.672412,2.05785,0.0230239,7452.37,85.3167
"2015-01-02 21:25:00 000",408.534,0.685631,2.02481,0.0215175,7419.18,86.9997
"2015-01-02 21:35:00 000",408.226,0.692793,2.02016,0.0201641,7393.62,88.8771
"2015-01-02 21:45:00 000",407.946,0.692049,1.99972,0.0293792,7411.93,88.9309
"2015-01-02 21:55:00 000",408.603,0.648796,2.06824,0.0261127,7419.37,90.7180
"2015-01-02 22:05:00 000",408.075,0.677841,2.03288,0.0208344,7384.85,90.6598
"2015-01-02 22:15:00 000",407.655,0.701773,1.98289,0.00635611,7375.40,85.8314
"2015-01-02 22:25:00 000",407.506,0.656502,1.99506,0.0115494,7379.62,89.7449
"2015-01-02 22:35:00 000",407.391,0.655673,1.99942,0.0153325,7292.76,88.6713
"2015-01-02 22:45:00 000",407.049,0.653996,2.04093,0.0204699,7287.56,85.6338
"2015-01-02 22:55:00 000",407.022,0.657503,2.02456,0.0204591,7273.58,89.6003
"2015-01-02 23:05:00 000",407.226,0.661801,2.04449,0.0215158,7250.19,92.8839
"2015-01-02 23:15:00 000",407.525,0.660879,2.00805,0.0210764,7225.95,95.7322
"2015-01-02 23:25:00 000",407.592,0.695111,2.02242,0.0171439,7205.20,93.3762
"2015-01-02 23:35:00 000",407.511,0.658556,2.01952,0.00897926,7215.10,88.0047
"2015-01-02 23:45:00 000",407.396,0.671662,2.02948,0.0126664,7241.79,87.3587
"2015-01-02 23:55:00 000",407.233,0.660219,2.01696,0.0150393,7270.99,89.9714
"2015-01-03 00:05:00 000",407.099,0.671607,2.06666,0.0286538,7315.70,93.3146
"2015-01-03 00:15:00 000",407.068,0.671268,2.06983,0.0286726,7352.25,89.1123
"2015-01-03 00:25:00 000",407.296,0.655770,2.01385,0.0157272,7319.47,86.4134
"2015-01-03 00:35:00 000",407.098,0.658988,1.99058,0.00882883,7291.15,89.5235
"2015-01-03 00:45:00 000",406.939,0.688154,1.98838,0.00879451,7299.65,88.8250
"2015-01-03 00:55:00 000",406.458,0.666013,1.98140,0.00484873,7311.58,89.1320
"2015-01-03 01:05:00 000",406.840,0.770984,1.98164,0.00346962,7270.60,85.9147
"2015-01-03 01:15:00 000",408.011,0.841598,1.98691,0.00411164,7249.61,87.1877
"2015-01-03 01:25:00 000",409.403,0.827761,1.99370,0.00486672,7185.81,85.8263
"2015-01-03 01:35:00 000",410.547,0.734166,2.00688,0.00669088,7096.76,88.0422
"2015-01-03 01:45:00 000",411.108,0.715260,2.02322,0.00934242,7030.95,94.6002
"2015-01-03 01:55:00 000",411.314,0.655549,2.05524,0.00648964,6975.59,98.5485
"2015-01-03 02:05:00 000",410.876,0.685370,2.04109,0.00702882,6889.82,91.4932